GW0206 Weather Reports


Display with metric or nautical units.
time (UTC)temp
F
wind
direction
speed
MPH
gust
MPH
rain 1hr
in
rain 24hr
in
rain mn
in
humidity
%
barometer
mb
20260903045508 78 78 1.0 4.0 0.00 0.00 0.00 83 1016.0
20260903045007 78 53 0.0 5.0 0.00 0.00 0.00 83 1015.9
20260903044526 78 92 2.0 5.0 0.00 0.00 0.00 83 1015.8
20260903044014 78 28 1.0 6.0 0.00 0.00 0.00 83 1015.7
20260903043512 78 64 2.0 7.0 0.00 0.00 0.00 83 1015.7
20260903043031 78 42 3.0 7.0 0.00 0.00 0.00 83 1015.6
20260903042504 78 50 2.0 8.0 0.00 0.00 0.00 83 1015.5
20260903042002 78 42 3.0 8.0 0.00 0.00 0.00 83 1015.5
20260903041511 78 57 4.0 8.0 0.00 0.00 0.00 83 1015.5
20260903041003 78 57 3.0 7.0 0.00 0.00 0.00 83 1015.6
20260903040506 78 42 3.0 8.0 0.00 0.00 0.00 83 1015.5
20260903040016 78 60 3.0 8.0 0.00 0.00 0.00 83 1015.5
20260903035503 78 44 3.0 8.0 0.00 0.00 0.00 83 1015.4
20260903035006 79 35 4.0 8.0 0.00 0.00 0.00 83 1015.3
20260903034523 79 76 3.0 7.0 0.00 0.00 0.00 83 1015.3
20260903034012 79 38 3.0 7.0 0.00 0.00 0.00 83 1015.3
20260903033503 79 33 2.0 7.0 0.00 0.00 0.00 83 1015.3
20260903033013 79 72 2.0 7.0 0.00 0.00 0.00 83 1015.4
20260903032508 79 56 3.0 5.0 0.00 0.00 0.00 84 1015.5
20260903032016 79 32 2.0 5.0 0.00 0.00 0.00 84 1015.7
20260903031521 79 49 2.0 5.0 0.00 0.00 0.00 84 1015.8
20260903031004 79 52 2.0 5.0 0.00 0.00 0.00 84 1015.9
20260903030503 79 42 2.0 4.0 0.00 0.00 0.00 84 1016.0
20260903030009 79 57 2.0 4.0 0.00 0.00 0.00 84 1016.1
20260903025507 79 44 1.0 5.0 0.00 0.00 0.00 84 1016.2
20260903025006 79 42 1.0 5.0 0.00 0.00 0.00 84 1016.2
20260903024513 79 31 3.0 6.0 0.00 0.00 0.00 84 1016.2
20260903024004 79 53 3.0 6.0 0.00 0.00 0.00 84 1016.2
20260903023509 79 61 3.0 7.0 0.00 0.00 0.00 84 1016.2
20260903023028 79 37 3.0 9.0 0.00 0.00 0.00 84 1016.2
20260903022511 80 61 4.0 9.0 0.00 0.00 0.00 84 1016.1
20260903022015 80 51 4.0 8.0 0.00 0.00 0.00 84 1016.1
20260903021537 80 61 4.0 9.0 0.00 0.00 0.00 84 1016.2
20260903021018 80 52 3.0 9.0 0.00 0.00 0.00 84 1016.1
20260903020510 80 61 3.0 8.0 0.00 0.00 0.00 84 1016.2
20260903020006 80 72 4.0 7.0 0.00 0.00 0.00 84 1016.1
20260903015506 80 46 4.0 7.0 0.00 0.00 0.00 84 1016.2
20260903015003 80 63 3.0 8.0 0.00 0.00 0.00 83 1016.3
20260903014514 81 61 3.0 8.0 0.00 0.00 0.00 83 1016.2
20260903014008 81 77 3.0 8.0 0.00 0.00 0.00 82 1016.3
20260903013508 81 59 3.0 7.0 0.00 0.00 0.00 82 1016.3
20260903013013 81 74 3.0 7.0 0.00 0.00 0.00 82 1016.4
20260903012508 81 38 3.0 7.0 0.00 0.00 0.00 81 1016.4
20260903012013 81 53 3.0 6.0 0.00 0.00 0.00 81 1016.4
20260903011527 81 56 3.0 7.0 0.00 0.00 0.00 80 1016.3
20260903011006 82 55 3.0 7.0 0.00 0.00 0.00 80 1016.4
20260903010509 82 38 3.0 5.0 0.00 0.00 0.00 79 1016.4
20260903010033 82 63 2.0 6.0 0.00 0.00 0.00 79 1016.4
20260903005514 82 66 3.0 6.0 0.00 0.00 0.00 79 1016.2
20260903005007 82 360 3.0 5.0 0.00 0.00 0.00 78 1016.1
20260903004530 83 61 3.0 5.0 0.00 0.00 0.00 78 1016.1
20260903004003 83 66 3.0 5.0 0.00 0.00 0.00 77 1016.1
20260903003503 83 48 3.0 6.0 0.00 0.00 0.00 77 1016.0
20260903003018 83 51 2.0 6.0 0.00 0.00 0.00 76 1015.9
20260903002508 84 59 3.0 6.0 0.00 0.00 0.00 76 1015.8
20260903002008 84 53 3.0 6.0 0.00 0.00 0.00 75 1015.7
20260903001514 85 59 2.0 6.0 0.00 0.00 0.00 74 1015.6
20260903001009 85 59 3.0 6.0 0.00 0.00 0.00 74 1015.7
20260903000514 85 94 4.0 6.0 0.00 0.00 0.00 73 1015.6
20260903000030 86 50 4.0 7.0 0.00 0.00 0.00 73 1015.6
20260902235509 86 80 4.0 7.0 0.00 0.00 0.00 72 1015.7
20260902235014 86 43 3.0 6.0 0.00 0.00 0.00 72 1015.7
20260902234532 87 45 3.0 5.0 0.00 0.00 0.00 71 1015.8
20260902234007 87 59 3.0 5.0 0.00 0.00 0.00 71 1015.8
20260902233511 88 69 2.0 5.0 0.00 0.00 0.00 71 1015.8
20260902233031 88 36 2.0 4.0 0.00 0.00 0.00 70 1015.8
20260902232510 88 65 2.0 5.0 0.00 0.00 0.00 70 1015.8
20260902232012 88 46 2.0 6.0 0.00 0.00 0.00 69 1015.7
20260902231516 89 46 3.0 6.0 0.00 0.00 0.00 68 1015.8
20260902231009 89 33 2.0 7.0 0.00 0.00 0.00 68 1015.9
20260902230510 89 63 2.0 9.0 0.00 0.00 0.00 68 1015.9
20260902230024 90 67 3.0 9.0 0.00 0.00 0.00 67 1015.9
20260902225518 90 51 3.0 7.0 0.00 0.00 0.00 66 1016.0
20260902225012 90 30 3.0 6.0 0.00 0.00 0.00 67 1015.9
20260902224519 90 67 2.0 12.0 0.00 0.00 0.00 66 1015.8
20260902224013 90 41 4.0 12.0 0.00 0.00 0.00 65 1015.8
20260902223517 90 69 4.0 10.0 0.00 0.00 0.00 65 1015.7
20260902223032 90 63 4.0 11.0 0.00 0.00 0.00 67 1015.8
20260902222511 90 78 4.0 11.0 0.00 0.00 0.00 66 1015.7
20260902222012 90 74 4.0 11.0 0.00 0.00 0.00 65 1015.7
20260902221530 90 31 3.0 10.0 0.00 0.00 0.00 66 1015.7
20260902221017 90 46 4.0 10.0 0.00 0.00 0.00 66 1015.7
20260902220510 91 33 4.0 11.0 0.00 0.00 0.00 64 1015.7
20260902220023 91 64 4.0 11.0 0.00 0.00 0.00 65 1015.8
20260902215509 91 105 3.0 10.0 0.00 0.00 0.00 64 1015.8
20260902215009 91 75 5.0 13.0 0.00 0.00 0.00 63 1015.8
20260902214529 90 28 5.0 13.0 0.00 0.00 0.00 64 1015.9
20260902214015 91 68 4.0 13.0 0.00 0.00 0.00 63 1016.0
20260902213511 91 97 6.0 13.0 0.00 0.00 0.00 63 1016.0
20260902213026 91 55 6.0 13.0 0.00 0.00 0.00 61 1016.0
20260902212515 91 46 6.0 13.0 0.00 0.00 0.00 62 1016.1
20260902212016 91 53 5.0 15.0 0.00 0.00 0.00 61 1016.1
20260902211536 92 77 5.0 15.0 0.00 0.00 0.00 62 1016.2
20260902211017 92 63 6.0 12.0 0.00 0.00 0.00 60 1016.2
20260902210515 93 91 4.0 13.0 0.00 0.00 0.00 61 1016.2
20260902210039 92 60 6.0 13.0 0.00 0.00 0.00 59 1016.3
20260902205512 92 109 4.0 12.0 0.00 0.00 0.00 63 1016.3
20260902205012 92 19 5.0 12.0 0.00 0.00 0.00 62 1016.4
20260902204526 92 39 4.0 12.0 0.00 0.00 0.00 63 1016.4
20260902204014 92 38 4.0 12.0 0.00 0.00 0.00 63 1016.5
20260902203511 93 53 5.0 13.0 0.00 0.00 0.00 61 1016.5
20260902203027 93 36 4.0 13.0 0.00 0.00 0.00 62 1016.5
20260902202512 93 5 6.0 12.0 0.00 0.00 0.00 61 1016.6
20260902202014 93 53 3.0 14.0 0.00 0.00 0.00 60 1016.7
20260902201529 94 68 8.0 14.0 0.00 0.00 0.00 61 1016.7
20260902201019 94 67 5.0 11.0 0.00 0.00 0.00 61 1016.7
20260902200522 94 65 4.0 11.0 0.00 0.00 0.00 61 1016.8
20260902200025 94 49 4.0 9.0 0.00 0.00 0.00 61 1016.8
20260902195518 94 54 2.0 11.0 0.00 0.00 0.00 61 1016.8
20260902195017 94 69 3.0 12.0 0.00 0.00 0.00 61 1016.9
20260902194536 94 69 3.0 12.0 0.00 0.00 0.00 62 1016.9
20260902194016 94 59 5.0 11.0 0.00 0.00 0.00 60 1017.0
20260902193514 95 155 5.0 11.0 0.00 0.00 0.00 58 1017.0
20260902193028 94 98 4.0 11.0 0.00 0.00 0.00 58 1017.0
20260902192513 94 121 6.0 11.0 0.00 0.00 0.00 57 1017.1
20260902192003 94 55 6.0 10.0 0.00 0.00 0.00 59 1017.1
20260902191511 94 159 4.0 8.0 0.00 0.00 0.00 58 1017.3
20260902191003 94 90 1.0 8.0 0.00 0.00 0.00 62 1017.3
20260902190504 94 53 3.0 8.0 0.00 0.00 0.00 59 1017.2
20260902190012 94 43 3.0 11.0 0.00 0.00 0.00 59 1017.3
20260902185504 94 74 4.0 11.0 0.00 0.00 0.00 56 1017.3
20260902185001 94 72 3.0 8.0 0.00 0.00 0.00 58 1017.3
20260902184510 95 94 2.0 8.0 0.00 0.00 0.00 59 1017.3
20260902184004 94 84 2.0 8.0 0.00 0.00 0.00 58 1017.4
20260902183509 94 52 3.0 11.0 0.00 0.00 0.00 60 1017.4
20260902183003 93 145 3.0 11.0 0.00 0.00 0.00 59 1017.4
20260902182502 93 51 3.0 8.0 0.00 0.00 0.00 63 1017.4
20260902182004 93 330 2.0 9.0 0.00 0.00 0.00 61 1017.5
20260902181503 93 9 2.0 9.0 0.00 0.00 0.00 61 1017.6
20260902181003 93 67 4.0 9.0 0.00 0.00 0.00 62 1017.6
20260902180503 93 121 4.0 8.0 0.00 0.00 0.00 63 1017.9
20260902180010 92 86 2.0 9.0 0.00 0.00 0.00 63 1017.9
20260902175503 92 31 3.0 12.0 0.00 0.00 0.00 62 1017.9
20260902175006 92 71 7.0 12.0 0.00 0.00 0.00 63 1018.0
20260902174511 92 65 1.0 9.0 0.00 0.00 0.00 65 1018.0
20260902174007 92 109 4.0 9.0 0.00 0.00 0.00 67 1018.1
20260902173504 91 91 3.0 10.0 0.00 0.00 0.00 66 1018.0
20260902173010 91 68 5.0 10.0 0.00 0.00 0.00 65 1018.2
20260902172509 91 11 3.0 8.0 0.00 0.00 0.00 66 1018.2
20260902172013 91 115 2.0 9.0 0.00 0.00 0.00 64 1018.2
20260902171505 91 111 4.0 9.0 0.00 0.00 0.00 66 1018.2
20260902171005 91 134 3.0 9.0 0.00 0.00 0.00 64 1018.3
20260902170504 91 57 3.0 8.0 0.00 0.00 0.00 68 1018.4
20260902170004 90 63 4.0 9.0 0.00 0.00 0.00 67 1018.4
20260902165504 90 139 2.0 9.0 0.00 0.00 0.00 66 1018.4
20260902165004 90 105 3.0 10.0 0.00 0.00 0.00 65 1018.4
20260902164511 90 49 5.0 10.0 0.00 0.00 0.00 66 1018.4
20260902164004 90 121 3.0 10.0 0.00 0.00 0.00 67 1018.5
20260902163505 90 58 2.0 11.0 0.00 0.00 0.00 67 1018.5
20260902163020 90 67 3.0 11.0 0.00 0.00 0.00 68 1018.7
20260902162508 90 126 5.0 9.0 0.00 0.00 0.00 68 1018.6
20260902162003 89 40 2.0 7.0 0.00 0.00 0.00 70 1018.6
20260902161504 89 90 1.0 9.0 0.00 0.00 0.00 69 1018.7
20260902161002 88 49 4.0 9.0 0.00 0.00 0.00 68 1018.7
20260902160504 88 103 3.0 9.0 0.00 0.00 0.00 72 1018.7
20260902160003 87 63 5.0 9.0 0.00 0.00 0.00 73 1018.7
20260902155502 87 82 2.0 11.0 0.00 0.00 0.00 74 1018.8
20260902155003 87 82 4.0 11.0 0.00 0.00 0.00 73 1018.8
20260902154504 86 42 2.0 9.0 0.00 0.00 0.00 75 1018.9
20260902154002 86 55 4.0 9.0 0.00 0.00 0.00 75 1018.9
20260902153502 86 13 4.0 9.0 0.00 0.00 0.00 74 1018.9
20260902153006 86 105 4.0 8.0 0.00 0.00 0.00 74 1018.9
20260902152503 86 59 2.0 7.0 0.00 0.00 0.00 73 1018.9
20260902152003 86 78 4.0 9.0 0.00 0.00 0.00 74 1018.9
20260902151504 86 42 3.0 9.0 0.00 0.00 0.00 74 1018.9
20260902151004 86 67 4.0 9.0 0.00 0.00 0.00 74 1018.8
20260902150502 86 132 3.0 8.0 0.00 0.00 0.00 74 1018.8
20260902150005 86 95 3.0 8.0 0.00 0.00 0.00 75 1018.8
20260902145502 86 109 3.0 9.0 0.00 0.00 0.00 77 1018.7
20260902145006 85 91 3.0 10.0 0.00 0.00 0.00 79 1018.7
20260902144504 85 80 4.0 10.0 0.00 0.00 0.00 76 1018.6
20260902144004 84 89 5.0 10.0 0.00 0.00 0.00 78 1018.6
20260902143502 84 109 2.0 9.0 0.00 0.00 0.00 78 1018.6
20260902143005 84 84 4.0 10.0 0.00 0.00 0.00 78 1018.6
20260902142503 83 98 6.0 10.0 0.00 0.00 0.00 79 1018.5
20260902142003 83 60 5.0 9.0 0.00 0.00 0.00 81 1018.5
20260902141506 83 116 3.0 9.0 0.00 0.00 0.00 80 1018.5
20260902141002 83 67 5.0 8.0 0.00 0.00 0.00 79 1018.5
20260902140504 82 59 3.0 8.0 0.00 0.00 0.00 82 1018.4
20260902140004 82 53 3.0 8.0 0.00 0.00 0.00 82 1018.5
20260902135504 81 71 4.0 8.0 0.00 0.00 0.00 84 1018.5
20260902135004 80 38 4.0 8.0 0.00 0.00 0.00 85 1018.5
20260902134506 80 129 2.0 9.0 0.00 0.00 0.00 86 1018.5
20260902134003 79 52 4.0 9.0 0.00 0.00 0.00 87 1018.6
20260902133503 79 83 4.0 8.0 0.00 0.00 0.00 88 1018.5
20260902133007 78 54 2.0 8.0 0.00 0.00 0.00 89 1018.6
20260902132505 77 60 3.0 8.0 0.00 0.00 0.00 90 1018.6
20260902132003 77 64 3.0 8.0 0.00 0.00 0.00 92 1018.7
20260902131508 76 69 2.0 5.0 0.00 0.00 0.00 94 1018.7
20260902131004 75 72 2.0 5.0 0.00 0.00 0.00 95 1018.5
20260902130503 75 16 2.0 7.0 0.00 0.00 0.00 95 1018.4
20260902130006 74 80 3.0 7.0 0.00 0.00 0.00 97 1018.4
20260902125504 74 26 2.0 5.0 0.00 0.00 0.00 97 1018.4
20260902125004 73 51 2.0 5.0 0.00 0.00 0.00 97 1018.5
20260902124508 73 35 2.0 5.0 0.00 0.00 0.00 98 1018.4
20260902124005 73 56 3.0 4.0 0.00 0.00 0.00 98 1018.5
20260902123504 72 31 1.0 4.0 0.00 0.00 0.00 98 1018.4
20260902123007 72 36 2.0 4.0 0.00 0.00 0.00 98 1018.4
20260902122502 72 17 1.0 3.0 0.00 0.00 0.00 98 1018.5
20260902122002 72 15 1.0 3.0 0.00 0.00 0.00 98 1018.5
20260902121508 72 36 1.0 3.0 0.00 0.00 0.00 98 1018.5
20260902121003 72 17 0.0 2.0 0.00 0.00 0.00 98 1018.5
20260902120502 71 17 0.0 2.0 0.00 0.00 0.00 98 1018.4
20260902120008 71 17 0.0 4.0 0.00 0.00 0.00 98 1018.3
20260902115506 71 65 1.0 4.0 0.00 0.00 0.00 98 1018.2
20260902115006 71 26 1.0 3.0 0.00 0.00 0.00 98 1018.1
20260902114507 71 55 1.0 3.0 0.00 0.00 0.00 98 1018.0
20260902114002 71 44 1.0 3.0 0.00 0.00 0.00 98 1017.9
20260902113502 71 36 1.0 3.0 0.00 0.00 0.00 98 1018.0
20260902113008 71 36 1.0 3.0 0.00 0.00 0.00 98 1018.0
20260902112503 71 36 1.0 3.0 0.00 0.00 0.00 98 1017.9
20260902112003 71 38 1.0 3.0 0.00 0.00 0.00 97 1017.9
20260902111509 71 20 0.0 3.0 0.00 0.00 0.00 98 1017.8
20260902111002 71 39 0.0 2.0 0.00 0.00 0.00 97 1017.7
20260902110507 71 24 1.0 3.0 0.00 0.00 0.00 97 1017.6
20260902110008 71 24 0.0 3.0 0.00 0.00 0.00 97 1017.6
20260902105505 71 15 1.0 3.0 0.00 0.00 0.00 97 1017.5
20260902105003 71 349 1.0 3.0 0.00 0.00 0.00 97 1017.5
20260902104514 71 17 0.0 3.0 0.00 0.00 0.00 97 1017.5
20260902104006 71 15 1.0 3.0 0.00 0.00 0.00 97 1017.5
20260902103507 71 12 1.0 3.0 0.00 0.00 0.00 97 1017.4
20260902103015 71 46 1.0 3.0 0.00 0.00 0.00 97 1017.5
20260902102507 71 15 1.0 4.0 0.00 0.00 0.00 97 1017.5
20260902102005 71 13 1.0 4.0 0.00 0.00 0.00 97 1017.5
20260902101511 71 5 1.0 3.0 0.00 0.00 0.00 97 1017.5
20260902101007 71 22 1.0 3.0 0.00 0.00 0.00 97 1017.4
20260902100508 71 17 0.0 2.0 0.00 0.00 0.00 97 1017.5
20260902100011 71 17 0.0 2.0 0.00 0.00 0.00 97 1017.4
20260902095508 71 338 0.0 1.0 0.00 0.00 0.00 97 1017.5
20260902095007 71 338 0.0 3.0 0.00 0.00 0.00 97 1017.6
20260902094516 72 338 0.0 4.0 0.00 0.00 0.00 97 1017.6
20260902094009 72 20 0.0 4.0 0.00 0.00 0.00 97 1017.5
20260902093509 72 13 0.0 3.0 0.00 0.00 0.00 97 1017.6
20260902093017 72 5 1.0 4.0 0.00 0.00 0.00 97 1017.7
20260902092508 72 36 1.0 4.0 0.00 0.00 0.00 97 1017.7
20260902092008 72 30 1.0 4.0 0.00 0.00 0.00 97 1017.7
20260902091523 72 36 1.0 3.0 0.00 0.00 0.00 97 1017.8
20260902091008 72 13 1.0 3.0 0.00 0.00 0.00 97 1017.8
20260902090508 72 20 1.0 3.0 0.00 0.00 0.00 97 1017.7
20260902090020 72 17 1.0 4.0 0.00 0.00 0.00 97 1017.8
20260902085508 72 11 1.0 4.0 0.00 0.00 0.00 97 1017.8
20260902085008 72 329 1.0 4.0 0.00 0.00 0.00 97 1017.8
20260902084518 72 5 2.0 5.0 0.00 0.00 0.00 97 1017.8
20260902084009 72 19 1.0 5.0 0.00 0.00 0.00 97 1017.7
20260902083507 72 19 1.0 5.0 0.00 0.00 0.00 97 1017.6
20260902083030 72 14 2.0 5.0 0.00 0.00 0.00 97 1017.6
20260902082510 72 5 2.0 4.0 0.00 0.00 0.00 97 1017.6
20260902082010 72 32 1.0 4.0 0.00 0.00 0.00 97 1017.7
20260902081524 72 32 2.0 4.0 0.00 0.00 0.00 97 1017.6
20260902081010 73 31 2.0 4.0 0.00 0.00 0.00 97 1017.5
20260902080512 73 355 1.0 4.0 0.00 0.00 0.00 97 1017.5
20260902080030 73 352 1.0 4.0 0.00 0.00 0.00 97 1017.6
20260902075509 73 5 0.0 3.0 0.00 0.00 0.00 97 1017.6
20260902075010 73 348 1.0 4.0 0.00 0.00 0.00 97 1017.5
20260902074527 73 12 0.0 4.0 0.00 0.00 0.00 97 1017.5
20260902074009 73 19 1.0 5.0 0.00 0.00 0.00 97 1017.5
20260902073516 73 48 2.0 5.0 0.00 0.00 0.00 97 1017.6
20260902073025 73 17 1.0 5.0 0.00 0.00 0.00 97 1017.6
20260902072508 73 5 1.0 5.0 0.00 0.00 0.00 97 1017.5
20260902072008 73 5 0.0 4.0 0.00 0.00 0.00 97 1017.5
20260902071524 73 355 1.0 4.0 0.00 0.00 0.00 97 1017.6
20260902071009 73 5 1.0 4.0 0.00 0.00 0.00 97 1017.7
20260902070513 73 13 0.0 3.0 0.00 0.00 0.00 97 1017.7
20260902070027 73 352 0.0 3.0 0.00 0.00 0.00 97 1017.7
20260902065513 73 333 0.0 2.0 0.00 0.00 0.00 96 1017.7
20260902065008 73 333 0.0 3.0 0.00 0.00 0.00 96 1017.7
20260902064526 73 10 1.0 3.0 0.00 0.00 0.00 96 1017.7
20260902064009 73 355 1.0 3.0 0.00 0.00 0.00 96 1017.8
20260902063517 73 346 0.0 2.0 0.00 0.00 0.00 96 1017.9
20260902063023 73 329 0.0 3.0 0.00 0.00 0.00 96 1017.9
20260902062507 73 34 0.0 4.0 0.00 0.00 0.00 96 1017.8
20260902062010 73 308 0.0 4.0 0.00 0.00 0.00 96 1017.8
20260902061521 73 360 0.0 3.0 0.00 0.00 0.00 96 1017.9
20260902061010 73 30 1.0 3.0 0.00 0.00 0.00 96 1017.9
20260902060510 73 327 0.0 2.0 0.00 0.00 0.00 96 1017.9
20260902060025 73 22 0.0 3.0 0.00 0.00 0.00 96 1018.0
20260902055508 73 346 1.0 3.0 0.00 0.00 0.00 96 1017.9
20260902055012 73 346 1.0 3.0 0.00 0.00 0.00 96 1017.9
20260902054537 73 346 0.0 2.0 0.00 0.00 0.00 96 1017.9
20260902054015 73 346 0.0 2.0 0.00 0.00 0.00 96 1017.9
20260902053509 73 346 1.0 3.0 0.00 0.00 0.00 95 1017.9
20260902053031 73 346 1.0 3.0 0.00 0.00 0.00 95 1017.9
20260902052515 73 346 1.0 2.0 0.00 0.00 0.00 95 1017.8
20260902052012 73 346 0.0 2.0 0.00 0.00 0.00 95 1017.8
20260902051527 73 346 0.0 3.0 0.00 0.00 0.00 95 1017.7
20260902051008 73 346 0.0 3.0 0.00 0.00 0.00 95 1017.7
20260902050506 73 346 0.0 3.0 0.00 0.00 0.00 95 1017.6
20260902050033 73 340 0.0 3.0 0.00 0.00 0.00 95 1017.5